[[{"header":{"parameterUnit":"m.s-1","parameterCategory":1,"la1":30.2991,"la2":30.254,"lo1":-89.0895,"lo2":-89.0444,"dy":0.0017,"dx":0.0017,"nx":28,"ny":28,"refTime":"2025-07-22T03:00:00:Z","depth":0,"parameterNumber":2,"parameterNumberName":"U-component_of_WINDS"},"data":[0,0,0,0,0,0,0,0,0,0,0,0,0,0,0,0,0,0,0,0,0,0,0,0,0,0,0,0,0,0,0,0,0,0,0,0,0,0,0,0,0,0,0,0,0,0,0,0,0,0,0,0,0,0,0,0,0,0,2.9196,2.9198,0,2.9434,2.9437,2.944,2.9375,2.937,2.9365,2.9361,2.9605,2.9615,2.9626,0,0,0,0,0,0,0,0,0,0,0,0,0,2.8685,2.8695,2.9195,2.9198,2.9201,2.9434,2.9437,2.944,2.9376,2.937,2.9364,2.9358,2.9601,2.9614,2.9627,0,0,0,0,0,0,0,0,0,0,0,0,0,2.8914,2.8698,2.9195,2.9197,2.92,2.9433,2.9437,2.9441,2.9377,2.937,2.9362,2.9356,2.9597,2.9613,2.9629,2.9875,0,0,2.9679,2.9686,0,0,0,0,0,0,0,0,2.8901,2.8932,2.9194,2.9197,2.9201,2.9367,2.9347,2.9587,2.9379,2.931,2.936,2.9352,2.9532,2.9553,2.9613,2.9886,2.9897,2.9681,2.9691,2.9698,2.9702,0,0,0,0,0,0,0,2.8885,2.8922,2.929,2.9198,2.9202,2.9187,2.9211,2.9392,2.9458,2.9315,2.9311,2.934,2.9532,2.9598,2.9619,2.99,2.968,2.9695,2.9705,2.9711,3.0388,3.0396,0,0,0,0,0,0,2.8866,2.8909,2.9282,2.9297,2.903,2.9202,2.9229,2.9321,2.9456,2.9469,2.9346,2.9336,2.9573,2.96,2.9627,2.9925,2.9698,2.9713,2.9723,3.038,3.039,3.0399,0,0,0,0,0,0,2.8856,2.89,2.9273,2.9102,2.9148,2.9218,2.9322,2.933,2.9395,2.9479,2.9491,2.9401,2.9568,2.9604,2.9814,2.9932,2.972,2.9735,3.0371,3.0383,3.0395,3.0522,0,0,0,0,0,0,2.8841,2.8897,2.899,2.9105,2.9158,2.9456,2.9329,2.9339,2.9424,2.9413,2.9534,2.9547,2.9566,2.979,2.983,2.9951,2.9748,3.036,3.0376,3.0391,3.0507,3.0537,3.0562,0,0,0,0,0,2.8823,2.9016,2.8995,2.9041,2.9276,2.9463,2.9493,2.9511,2.9434,2.9529,2.9583,2.9543,2.9913,2.9812,2.9857,2.9985,3.0353,3.0372,3.0389,3.0495,3.0531,3.0561,0,0,0,0,0,0,2.8913,2.9031,2.9009,2.9245,2.9344,2.9451,2.9571,2.9548,2.9671,2.9656,2.9673,2.97,2.9916,2.9971,2.9857,3.023,3.0122,3.015,3.0186,3.0221,3.0248,3.023,2.9762,0,0,0,0,0,2.896,2.9102,2.9197,2.9396,2.9447,2.9501,2.9583,2.9588,2.9692,2.9733,2.9803,2.9905,3.0044,3.0136,3.0268,3.0515,3.0541,3.0625,3.0652,3.0674,3.0698,3.0834,3.0873,3.0459,3.0459,3.0458,0,0,2.9059,2.9141,2.9229,2.9416,2.9493,2.9641,2.9537,2.9696,2.9805,2.9757,2.9961,3.0016,3.0131,3.0361,3.0465,3.0413,3.0819,3.0697,3.0714,3.0727,3.0857,3.0896,3.0931,3.0471,3.0469,3.0467,0,0,2.9314,2.939,2.9564,2.9645,2.9765,2.98,2.9842,2.9954,2.9989,3.0194,3.0161,3.0292,3.0531,3.0615,3.0689,3.0979,3.0948,3.1022,3.1165,3.1297,3.133,3.1359,3.1463,3.1501,3.1046,3.1046,3.1046,0,2.9421,2.9641,2.9657,2.9821,2.9904,2.9869,3.0047,3.0124,3.0281,3.034,3.028,3.0581,3.0656,3.0905,3.0977,3.1037,3.1087,3.1008,3.1324,3.1353,3.138,3.148,3.152,3.1054,3.1053,3.1053,3.1052,0,2.9768,2.9922,3.0048,3.0202,3.03,3.047,3.0512,3.061,3.0608,3.065,3.0859,3.0948,3.1099,3.1159,3.1157,3.141,3.1374,3.1319,3.121,3.1428,3.1522,3.1561,3.1066,3.1063,3.1061,3.1059,0,0,3.0083,3.0247,3.0293,3.0363,3.0494,3.0613,3.0783,3.0931,3.1015,3.1125,3.1268,3.1472,3.1423,3.1507,3.1515,3.1631,3.1857,3.1562,3.1565,3.1615,3.2142,3.2183,3.2227,3.1837,3.1845,3.185,3.2133,0,3.035,3.0648,3.0669,3.0938,3.1081,3.1052,3.1199,3.1296,3.1341,3.1468,3.1517,3.1662,3.1585,3.1636,3.175,3.1806,3.1964,3.1786,3.197,3.1977,3.1943,3.2276,3.232,3.2582,3.217,3.2176,3.2181,0,3.07,3.0823,3.1107,3.1221,3.1281,3.1414,3.1553,3.1676,3.1786,3.181,3.1906,3.1898,3.2072,3.1958,3.2198,3.2077,3.2154,3.2193,3.2203,3.2222,3.2092,3.2304,3.2666,3.2706,3.2239,3.2234,3.223,0,3.0902,3.1139,3.134,3.1401,3.1539,3.1633,3.1694,3.1797,3.1886,3.2008,3.2066,3.2206,3.2283,3.2392,3.2423,3.2336,3.2664,3.2551,3.2689,3.2688,3.2759,3.2754,3.3139,3.2808,3.2807,3.2807,3.2806,0,3.1198,3.1373,3.1433,3.1557,3.1753,3.1777,3.197,3.2026,3.2119,3.2253,3.2236,3.2362,3.2395,3.2528,3.2553,3.2749,3.2784,3.2809,3.2813,3.2811,3.2808,3.2861,3.2844,3.2817,3.2815,3.2813,3.2811,0,3.1456,3.1503,3.1721,3.1835,3.1868,3.2007,3.2105,3.2224,3.2267,3.2438,3.2479,3.2547,3.2703,3.2745,3.293,3.2947,3.3179,3.3166,3.3142,3.3142,3.3278,3.3265,3.3711,3.3771,3.3401,3.3404,3.3407,0,3.164,3.1775,3.1905,3.1995,3.2061,3.2205,3.2297,3.2326,3.2422,3.256,3.2663,3.2817,3.2942,3.3192,3.3258,3.34,3.3391,3.3538,3.3412,3.3406,3.3394,3.3386,3.34,3.3561,3.3565,3.3568,3.3571,0,3.1964,3.1982,3.2115,3.2259,3.2369,3.2483,3.2592,3.2666,3.2711,3.2821,3.2981,3.3078,3.327,3.3423,3.3568,3.363,3.361,3.361,3.365,3.3648,3.3629,3.3642,3.3208,3.36,3.3597,3.3595,3.3593,3.3592,3.2191,3.231,3.2421,3.2572,3.2658,3.2761,3.288,3.294,3.3074,3.3234,3.3243,3.3418,3.3526,3.3719,3.379,3.3927,3.3883,3.394,3.3954,3.3968,3.398,3.3608,3.3953,3.3952,3.3952,3.3951,3.3951,0,3.2513,3.2585,3.2723,3.2878,3.2997,3.2969,3.3089,3.319,3.3344,3.3449,3.3573,3.3759,3.3908,3.3987,3.4136,3.423,3.4224,3.4268,3.4261,3.4277,3.4011,3.3962,3.4271,3.4271,3.4271,3.4271,3.4271,3.427,3.2695,3.2896,3.2929,3.3173,3.3243,3.3416,3.3487,3.3583,3.3667,3.3875,3.4001,3.4052,3.4147,3.4303,3.4439,3.4458,3.4514,3.4564,3.4578,3.4328,3.4295,3.4264,3.4218,3.4576,3.4576,3.4832,3.4835,3.4836]},{"header":{"parameterUnit":"m.s-1","parameterCategory":1,"la1":30.2991,"la2":30.254,"lo1":-89.0895,"lo2":-89.0444,"dy":0.0017,"dx":0.0017,"nx":28,"ny":28,"refTime":"2025-07-22T03:00:00:Z","depth":0,"parameterNumber":3,"parameterNumberName":"V-component_of_WINDS"},"data":[0,0,0,0,0,0,0,0,0,0,0,0,0,0,0,0,0,0,0,0,0,0,0,0,0,0,0,0,0,0,0,0,0,0,0,0,0,0,0,0,0,0,0,0,0,0,0,0,0,0,0,0,0,0,0,0,0,0,-0.747,-0.7471,0,-0.756,-0.7561,-0.7562,-0.7877,-0.7884,-0.7891,-0.7898,-0.797,-0.7965,-0.796,0,0,0,0,0,0,0,0,0,0,0,0,0,-0.7552,-0.7548,-0.747,-0.7471,-0.7472,-0.756,-0.7561,-0.7562,-0.7876,-0.7885,-0.7893,-0.7902,-0.7971,-0.7966,-0.796,0,0,0,0,0,0,0,0,0,0,0,0,0,-0.7565,-0.7547,-0.747,-0.764,-0.7656,-0.7559,-0.7561,-0.7562,-0.7874,-0.7885,-0.7896,-0.7906,-0.7973,-0.7966,-0.7959,-0.7699,0,0,-0.7937,-0.7934,0,0,0,0,0,0,0,0,-0.7564,-0.7562,-0.7614,-0.7628,-0.7646,-0.7719,-0.7617,-0.7607,-0.7871,-0.779,-0.7898,-0.7911,-0.7876,-0.7878,-0.787,-0.7702,-0.7706,-0.7936,-0.7932,-0.7929,-0.7927,0,0,0,0,0,0,0,-0.7563,-0.756,-0.7505,-0.7614,-0.7633,-0.7706,-0.7719,-0.7616,-0.7771,-0.7798,-0.7822,-0.7829,-0.7887,-0.7876,-0.7874,-0.7707,-0.7937,-0.793,-0.7926,-0.7923,-0.7335,-0.7324,0,0,0,0,0,0,-0.754,-0.7557,-0.7502,-0.7508,-0.7631,-0.7695,-0.7711,-0.7684,-0.7773,-0.7798,-0.782,-0.7843,-0.7883,-0.7882,-0.7878,-0.7586,-0.7929,-0.7922,-0.7918,-0.7346,-0.7332,-0.732,0,0,0,0,0,0,-0.7541,-0.7533,-0.7499,-0.7539,-0.754,-0.7683,-0.765,-0.768,-0.7671,-0.779,-0.7817,-0.7782,-0.7892,-0.7888,-0.7744,-0.7592,-0.7919,-0.7913,-0.7359,-0.7342,-0.7326,-0.6994,0,0,0,0,0,0,-0.7542,-0.7531,-0.7438,-0.7535,-0.7537,-0.7368,-0.764,-0.7674,-0.766,-0.7692,-0.7762,-0.7783,-0.79,-0.7753,-0.7737,-0.7588,-0.7907,-0.7374,-0.7351,-0.7331,-0.702,-0.6968,-0.6924,0,0,0,0,0,-0.7544,-0.7335,-0.7432,-0.7423,-0.7425,-0.7358,-0.7359,-0.7504,-0.7646,-0.7552,-0.7629,-0.7781,-0.7609,-0.7736,-0.772,-0.7567,-0.7384,-0.7358,-0.7333,-0.7041,-0.6978,-0.6925,0,0,0,0,0,0,-0.721,-0.7351,-0.746,-0.7278,-0.7304,-0.7412,-0.7298,-0.7432,-0.7413,-0.7443,-0.7616,-0.7629,-0.7461,-0.7498,-0.7636,-0.7322,-0.7522,-0.7492,-0.7306,-0.7247,-0.72,-0.7198,-0.7901,0,0,0,0,0,-0.7116,-0.7057,-0.718,-0.7007,-0.7016,-0.7153,-0.7129,-0.7239,-0.7271,-0.7282,-0.7349,-0.7368,-0.7321,-0.7284,-0.7246,-0.7024,-0.7045,-0.6911,-0.6863,-0.6823,-0.6797,-0.6687,-0.6631,-0.7236,-0.7237,-0.7237,0,0,-0.692,-0.699,-0.694,-0.6942,-0.6977,-0.6907,-0.7161,-0.7075,-0.7025,-0.7267,-0.7141,-0.7187,-0.7221,-0.7039,-0.6961,-0.7064,-0.6634,-0.6791,-0.6758,-0.6754,-0.6655,-0.6598,-0.6547,-0.7219,-0.7222,-0.7225,0,0,-0.653,-0.6575,-0.6441,-0.647,-0.6521,-0.6614,-0.658,-0.6667,-0.6712,-0.6587,-0.6769,-0.6706,-0.6618,-0.6637,-0.6634,-0.625,-0.6391,-0.6231,-0.5984,-0.5875,-0.5828,-0.5786,-0.5655,-0.5605,-0.6203,-0.6202,-0.6202,0,-0.6279,-0.6189,-0.6351,-0.6257,-0.6253,-0.6475,-0.6338,-0.6355,-0.6386,-0.6376,-0.6492,-0.639,-0.6427,-0.6255,-0.6162,-0.615,-0.6117,-0.6228,-0.5822,-0.5782,-0.5746,-0.5623,-0.5572,-0.6183,-0.6186,-0.6187,-0.6189,0,-0.588,-0.5814,-0.5696,-0.5733,-0.5713,-0.5595,-0.5736,-0.5696,-0.5804,-0.5883,-0.5753,-0.5806,-0.5785,-0.575,-0.5851,-0.5592,-0.5656,-0.5792,-0.5999,-0.5667,-0.5555,-0.5508,-0.6156,-0.6163,-0.6169,-0.6173,0,0,-0.5289,-0.5416,-0.5371,-0.5392,-0.5463,-0.5412,-0.5302,-0.5289,-0.5254,-0.5264,-0.5179,-0.5099,-0.523,-0.5226,-0.5331,-0.5233,-0.4933,-0.5385,-0.5388,-0.5305,-0.4655,-0.4558,-0.45,-0.5024,-0.5016,-0.5009,-0.4655,0,-0.4925,-0.4757,-0.4899,-0.4702,-0.4644,-0.4852,-0.4757,-0.4787,-0.4856,-0.4812,-0.4885,-0.483,-0.5001,-0.5002,-0.4915,-0.4988,-0.4806,-0.5014,-0.4946,-0.4941,-0.494,-0.4441,-0.4336,-0.4001,-0.4611,-0.4604,-0.4598,0,-0.4481,-0.4483,-0.4282,-0.437,-0.435,-0.4264,-0.4265,-0.4219,-0.4256,-0.4313,-0.431,-0.4441,-0.4337,-0.4533,-0.4392,-0.4531,-0.4509,-0.454,-0.4531,-0.4536,-0.4755,-0.4439,-0.3896,-0.3849,-0.4529,-0.4535,-0.454,0,-0.4079,-0.4028,-0.3905,-0.3913,-0.401,-0.3946,-0.3981,-0.403,-0.4013,-0.4009,-0.4001,-0.398,-0.397,-0.395,-0.4072,-0.4203,-0.3915,-0.4121,-0.396,-0.3957,-0.3897,-0.3901,-0.3351,-0.3868,-0.3869,-0.387,-0.3871,0,-0.3664,-0.3534,-0.3727,-0.3651,-0.3511,-0.367,-0.3525,-0.3582,-0.3623,-0.3558,-0.373,-0.3664,-0.3826,-0.3775,-0.3866,-0.3739,-0.3729,-0.3772,-0.38,-0.3762,-0.3758,-0.3756,-0.3786,-0.3857,-0.3859,-0.3862,-0.3864,0,-0.3196,-0.3319,-0.3199,-0.3301,-0.3323,-0.3216,-0.3302,-0.3233,-0.3313,-0.3229,-0.3218,-0.334,-0.329,-0.3408,-0.3371,-0.3433,-0.3253,-0.3312,-0.3244,-0.3265,-0.3101,-0.3117,-0.2537,-0.2472,-0.3022,-0.3016,-0.3012,0,-0.2929,-0.2836,-0.2929,-0.2903,-0.2932,-0.2883,-0.287,-0.3019,-0.2996,-0.3032,-0.2958,-0.2923,-0.2906,-0.2813,-0.2896,-0.287,-0.2935,-0.2733,-0.2932,-0.2899,-0.2942,-0.295,-0.2943,-0.2695,-0.2688,-0.2682,-0.2678,0,-0.2442,-0.2508,-0.2486,-0.2482,-0.2463,-0.2465,-0.248,-0.2445,-0.2605,-0.2569,-0.2525,-0.251,-0.2476,-0.244,-0.2432,-0.2464,-0.2597,-0.2613,-0.2577,-0.2542,-0.2509,-0.2532,-0.3141,-0.2628,-0.2633,-0.2637,-0.2639,-0.2641,-0.2073,-0.2002,-0.2059,-0.2027,-0.2055,-0.2064,-0.2008,-0.2081,-0.2048,-0.2039,-0.2125,-0.2061,-0.2099,-0.2104,-0.2121,-0.2071,-0.2162,-0.2106,-0.2093,-0.208,-0.2057,-0.2509,-0.2068,-0.207,-0.2071,-0.2072,-0.2073,0,-0.1604,-0.1651,-0.1619,-0.1639,-0.1612,-0.1742,-0.1764,-0.1733,-0.1678,-0.1704,-0.1684,-0.1631,-0.1596,-0.1675,-0.1652,-0.1596,-0.1657,-0.1586,-0.1596,-0.1602,-0.1972,-0.2011,-0.1538,-0.1538,-0.1538,-0.1538,-0.1538,-0.1538,-0.1358,-0.1247,-0.1318,-0.122,-0.1266,-0.1212,-0.1214,-0.1222,-0.1246,-0.1182,-0.1157,-0.121,-0.1257,-0.1239,-0.1212,-0.1236,-0.1222,-0.1131,-0.1176,-0.1522,-0.1575,-0.1625,-0.1663,-0.1124,-0.1124,-0.0812,-0.0808,-0.0806]}]]